Regional Weather Roundup
Issued by NWS Bismarck, ND

Home | Current Version | Previous Version | Text Only | Print | Product List | Glossary On
Versions: 1 2 3 4 5 6 7 8 9 10 11 12 13 14 15 16 17 18 19 20 21 22 23 24 25 26 27 28 29 30 31 32 33 34 35 36 37 38 39 40 41 42 43 44 45 46 47 48 49 50
000
ASUS43 KBIS 280302
RWRBIS

NWR BROADCAST TEXT
NATIONAL WEATHER SERVICE BISMARCK ND
1000 PM CDT TUE SEP 27 2016

NOTE: "FAIR" INDICATES FEW OR NO CLOUDS BELOW 12,000 FEET WITH NO
SIGNIFICANT WEATHER AND/OR OBSTRUCTIONS TO VISIBILITY.


CITY           SKY/WX    TMP DP  RH WIND       PRES   REMARKS
WILLISTON      CLEAR     56  49  77 CALM      29.96R
MINOT          CLEAR     52  42  69 CALM      29.99R
MINOT AFB      CLEAR     51  41  68 E3        29.98R
BISMARCK       CLEAR     52  43  71 NE5       30.00R
DICKINSON      CLEAR     58  46  64 S7        29.99R
GARRISON         N/A     53  43  68 E5        29.99R
HETTINGER ARPT CLEAR     54  47  77 N3        30.03R
JAMESTOWN      CLEAR     46  38  73 NE5       29.99R
BEACH          FAIR      54  50  87 S3        30.04R
CARRINGTON     FAIR      52  34  50 NE6       30.02R
HAZEN          FAIR      48  41  76 CALM      30.01R
RUGBY          FAIR      45  37  76 E8        30.01R
STANLEY        FAIR      54  46  76 CALM      30.02R
$$

CITY           SKY/WX    TMP DP  RH WIND       PRES   REMARKS
GRAND FORKS    CLOUDY    53  46  77 N9        30.00R
GRAND FORKS AF CLOUDY    50  46  85 NE6       30.00R
DEVILS LAKE    CLEAR     46  42  86 CALM      30.02R
FARGO          CLOUDY    54  44  69 N8        29.97R
CANDO          FAIR      45  43  93 E3        30.04R
CAVALIER       CLOUDY    50  45  81 NE9       30.02R
GRAFTON        CLOUDY    50  46  87 NE8       30.03R
GWINNER        FAIR      46  41  81 NE6       29.98R
LANGDON        FAIR      46  43  87 NE9       30.02R
ROLLA          FAIR      45  36  70 CALM      30.04R
WALHALLA       FAIR      50  48  93 E7        30.03R
$$

CITY           SKY/WX    TMP DP  RH WIND       PRES   REMARKS
ABERDEEN       CLEAR     51  36  56 N6        29.96R
MOBRIDGE       CLEAR     61  41  47 E14       29.95R
BUFFALO          N/A     65  46  50 NW5       29.98R
RAPID CITY     CLEAR     62  42  47 N10       30.05R
GLASGOW        CLEAR     65  46  50 VRB7      29.96R
SIDNEY         CLEAR     61  48  62 CALM      29.95R
WOLF POINT     CLEAR     58  51  78 CALM      29.96R
GLENDIVE       CLEAR     56  49  77 W7        30.00R
MILES CITY     CLEAR     63  48  58 W8        30.02R
BAKER          CLEAR     59  49  69 CALM      30.04R
$$

CITY           SKY/WX    TMP DP  RH WIND       PRES   REMARKS
BILLINGS       CLEAR     67  40  37 NW9       30.08R
GREAT FALLS    PTCLDY    60  45  57 N14       30.16R
$$





USA.gov is the U.S. government's official web portal to all federal, state and local government web resources and services.